Le nostre stazioni meteo in Italia

Pubblicità
Il mio iltempo24.it
Bari, Italia (16271): Temperatura & dewpoint: 02.07.2020 13:00:00 - 08.07.2020 13:00:00 (CEST)Bari, Italia (16271): velocità del vento: 02.07.2020 13:00:00 - 08.07.2020 13:00:00 (CEST)Bari, Italia (16271): direzione del vento: 02.07.2020 13:00:00 - 08.07.2020 13:00:00 (CEST)Bari, Italia (16271): reduced air pressure: 02.07.2020 13:00:00 - 08.07.2020 13:00:00 (CEST)
Data & Tempo tt [°C] td [°C] ff [km/h] ff [kn] dd ppp [hPa]
08.07.2020 13:00:00 - - - - - -
08.07.2020 12:00:00 25,2 15,2 18 10 ONO 1017,1
08.07.2020 11:00:00 24,5 15,9 18 10 S 1016,8
08.07.2020 10:00:00 24,1 16,5 18 10 ONO 1016,6
08.07.2020 09:00:00 23,0 17,4 22 12 ONO 1016,5
08.07.2020 08:00:00 22,4 16,6 16 9 ONO 1016,0
08.07.2020 07:00:00 21,4 15,8 15 8 S 1015,5
08.07.2020 06:00:00 21,0 15,2 18 10 S 1015,3
08.07.2020 05:00:00 21,7 15,2 16 9 S 1015,1
08.07.2020 04:00:00 21,7 15,0 15 8 S 1015,0
08.07.2020 03:00:00 23,3 17,4 24 13 ONO 1014,9
08.07.2020 02:00:00 23,4 17,3 34 18 ONO 1015,0
08.07.2020 01:00:00 23,7 17,6 35 19 NO 1015,0
08.07.2020 00:00:00 23,6 17,5 37 20 NO 1014,7
07.07.2020 23:00:00 23,7 17,6 39 21 NO 1014,4
07.07.2020 22:00:00 24,2 17,6 42 23 NO 1013,8
07.07.2020 21:00:00 24,8 18,4 35 19 NO 1013,4
07.07.2020 20:00:00 25,1 17,7 37 20 NO 1012,8
07.07.2020 19:00:00 25,9 18,3 34 18 ONO 1012,6
07.07.2020 18:00:00 26,3 17,6 29 16 ONO 1012,5
07.07.2020 17:00:00 26,4 16,9 35 19 NO 1012,4
07.07.2020 16:00:00 26,5 18,0 35 19 NO 1012,1
07.07.2020 15:00:00 26,7 18,2 37 20 O 1011,5
07.07.2020 14:00:00 26,6 18,9 35 19 NO 1011,0
07.07.2020 13:00:00 26,5 19,3 28 15 NO 1010,7
07.07.2020 12:00:00 26,2 18,8 28 15 NO 1010,2
07.07.2020 11:00:00 26,0 18,8 34 18 NO 1009,7
07.07.2020 10:00:00 26,0 19,6 26 14 NO 1009,1
07.07.2020 09:00:00 26,1 17,1 18 10 NO 1008,5
07.07.2020 08:00:00 25,6 14,9 8 4 O 1007,6
07.07.2020 07:00:00 23,7 14,3 15 8 O 1007,5
07.07.2020 06:00:00 23,3 15,0 16 9 O 1007,0
07.07.2020 05:00:00 23,2 15,7 11 6 O 1006,5
07.07.2020 04:00:00 23,5 16,2 9 5 O 1006,8
07.07.2020 03:00:00 23,9 18,0 9 5 O 1006,7
07.07.2020 02:00:00 24,3 18,2 9 5 O 1006,8
07.07.2020 01:00:00 25,1 18,2 8 4 O 1007,0
07.07.2020 00:00:00 25,9 18,8 4 2 O 1007,2
06.07.2020 23:00:00 25,8 19,4 4 2 NO 1007,1
06.07.2020 22:00:00 25,8 19,6 5 3 NO 1007,1
06.07.2020 21:00:00 25,9 19,2 8 4 NO 1006,7
06.07.2020 20:00:00 26,6 19,7 9 5 NO 1006,8
06.07.2020 19:00:00 27,1 19,9 15 8 NO 1006,6
06.07.2020 18:00:00 27,0 20,8 22 12 O 1006,6
06.07.2020 17:00:00 27,8 21,1 21 11 O 1006,9
06.07.2020 16:00:00 27,2 23,0 16 9 NO 1007,6
06.07.2020 15:00:00 27,2 23,0 22 12 O 1008,0
06.07.2020 14:00:00 27,2 22,1 24 13 NO 1008,2
06.07.2020 13:00:00 26,9 22,5 26 14 NO 1008,5
06.07.2020 12:00:00 26,1 19,4 22 12 NO 1008,9
06.07.2020 11:00:00 26,0 19,6 21 11 NO 1009,2
06.07.2020 10:00:00 25,5 18,9 18 10 NO 1009,6
06.07.2020 09:00:00 25,1 18,0 18 10 NO 1009,4
06.07.2020 08:00:00 24,2 16,6 11 6 NO 1009,3
06.07.2020 07:00:00 23,8 15,7 11 6 O 1009,3
06.07.2020 06:00:00 23,9 15,3 13 7 O 1009,2
06.07.2020 05:00:00 24,0 15,1 15 8 O 1009,3
06.07.2020 04:00:00 24,1 15,2 16 9 O 1009,7
06.07.2020 03:00:00 24,1 15,2 15 8 O 1010,1
06.07.2020 02:00:00 23,9 15,8 15 8 O 1010,9
06.07.2020 01:00:00 24,4 16,3 15 8 O 1011,4
06.07.2020 00:00:00 24,9 17,3 15 8 O 1011,5
05.07.2020 23:00:00 25,6 18,7 24 13 NO 1011,4
05.07.2020 22:00:00 25,5 18,6 28 15 NO 1011,7
05.07.2020 21:00:00 25,7 19,5 28 15 NO 1011,3
05.07.2020 20:00:00 25,9 19,7 35 19 NO 1011,4
05.07.2020 19:00:00 26,4 20,0 29 16 NO 1011,4
05.07.2020 18:00:00 26,6 20,4 31 17 S 1011,5
05.07.2020 17:00:00 26,6 19,4 28 15 S 1011,9
05.07.2020 16:00:00 26,6 19,7 31 17 S 1012,3
05.07.2020 15:00:00 26,8 19,9 29 16 S 1012,8
05.07.2020 14:00:00 26,7 20,2 28 15 S 1013,0
05.07.2020 13:00:00 26,3 21,0 24 13 S 1013,5
05.07.2020 12:00:00 26,4 19,5 22 12 S 1013,7
05.07.2020 11:00:00 25,4 20,6 26 14 S 1013,3
05.07.2020 10:00:00 25,8 20,8 24 13 S 1013,1
05.07.2020 09:00:00 24,2 17,8 15 8 S 1013,4
05.07.2020 08:00:00 23,0 17,4 18 10 S 1013,0
05.07.2020 07:00:00 22,5 17,3 11 6 S 1012,9
05.07.2020 06:00:00 22,4 16,8 11 6 S 1012,8
05.07.2020 05:00:00 22,3 16,9 11 6 S 1012,5
05.07.2020 04:00:00 22,2 16,6 13 7 S 1012,6
05.07.2020 03:00:00 22,5 16,2 15 8 S 1013,6
05.07.2020 02:00:00 23,1 16,8 9 5 S 1014,4
05.07.2020 01:00:00 23,8 17,9 11 6 S 1014,3
05.07.2020 00:00:00 24,7 19,0 28 15 S 1014,2
04.07.2020 23:00:00 24,7 19,0 26 14 S 1013,9
04.07.2020 22:00:00 24,5 17,9 18 10 S 1013,9
04.07.2020 21:00:00 24,5 18,4 21 11 S 1013,3
04.07.2020 20:00:00 24,7 18,3 15 8 S 1013,2
04.07.2020 19:00:00 24,6 18,0 16 9 S 1012,8
04.07.2020 18:00:00 24,0 16,7 13 7 S 1013,1
04.07.2020 17:00:00 23,4 17,1 15 8 S 1014,6
04.07.2020 16:00:00 23,1 17,0 44 24 S 1013,7
04.07.2020 15:00:00 26,0 19,8 26 14 S 1015,5
04.07.2020 14:00:00 26,6 20,8 28 15 S 1012,8
04.07.2020 13:00:00 27,2 20,2 18 10 S 1013,7
04.07.2020 12:00:00 27,6 20,9 18 10 S 1013,6
04.07.2020 11:00:00 27,5 20,5 16 9 S 1013,4
04.07.2020 10:00:00 26,6 22,4 22 12 S 1013,5
04.07.2020 09:00:00 26,3 21,2 13 7 S 1013,3
04.07.2020 08:00:00 25,4 20,6 15 8 S 1013,1
04.07.2020 07:00:00 24,5 19,7 13 7 S 1012,9
04.07.2020 06:00:00 24,3 19,5 11 6 S 1012,6
04.07.2020 05:00:00 24,7 19,9 13 7 S 1012,6
04.07.2020 04:00:00 24,7 19,7 9 5 S 1012,5
04.07.2020 03:00:00 25,4 20,4 15 8 S 1012,6
04.07.2020 02:00:00 26,1 21,0 9 5 S 1012,8
04.07.2020 01:00:00 26,9 21,6 5 3 S 1012,7
04.07.2020 00:00:00 27,0 21,7 11 6 S 1012,8
03.07.2020 23:00:00 27,2 21,9 5 3 S 1012,7
03.07.2020 22:00:00 27,3 23,9 9 5 S 1012,7
03.07.2020 21:00:00 27,4 23,8 11 6 S 1011,6
03.07.2020 20:00:00 27,9 22,3 15 8 S 1011,2
03.07.2020 19:00:00 28,9 23,3 9 5 S 1010,3
03.07.2020 18:00:00 28,8 24,3 16 9 S 1010,1
03.07.2020 17:00:00 29,9 22,6 11 6 S 1009,8
03.07.2020 16:00:00 29,3 22,0 21 11 S 1010,4
03.07.2020 15:00:00 30,8 23,4 15 8 S 1010,0
03.07.2020 14:00:00 30,2 22,8 16 9 S 1010,3
03.07.2020 13:00:00 30,2 23,1 13 7 S 1010,8
03.07.2020 12:00:00 29,6 22,8 9 5 S 1010,7
03.07.2020 11:00:00 28,9 22,8 8 4 S 1010,5
03.07.2020 10:00:00 28,6 21,3 8 4 S 1010,4
03.07.2020 09:00:00 27,6 20,6 8 4 S 1010,7
03.07.2020 08:00:00 27,5 20,5 2 1 S 1010,2
03.07.2020 07:00:00 25,9 19,7 5 3 S 1009,9
03.07.2020 06:00:00 25,6 19,4 5 3 S 1010,1
03.07.2020 05:00:00 26,2 20,0 5 3 S 1009,9
03.07.2020 04:00:00 26,3 20,1 4 2 S 1009,7
03.07.2020 03:00:00 26,7 21,4 2 1 S 1009,9
03.07.2020 02:00:00 26,7 20,2 8 4 S 1010,3
03.07.2020 01:00:00 27,5 20,8 4 2 S 1010,3
03.07.2020 00:00:00 27,1 21,8 4 2 S 1010,4
02.07.2020 23:00:00 27,7 22,1 0 0 N 1010,4
02.07.2020 22:00:00 27,5 22,2 4 2 S 1010,4
02.07.2020 21:00:00 27,5 23,1 5 3 S 1009,9
02.07.2020 20:00:00 28,2 22,6 4 2 S 1009,9
02.07.2020 19:00:00 28,7 23,1 5 3 S 1010,2
02.07.2020 18:00:00 28,5 23,8 5 3 S 1010,7
02.07.2020 17:00:00 28,9 23,3 15 8 S 1010,0
02.07.2020 16:00:00 29,5 22,9 16 9 S 1009,8
02.07.2020 15:00:00 30,8 23,2 15 8 S 1010,1
02.07.2020 14:00:00 30,6 22,2 13 7 S 1010,6
02.07.2020 13:00:00 30,4 20,9 11 6 S 1011,0

tt = Temperatura
td = dewpoint
ff = velocità del vento
dd = direzione del vento
ppp = reduced air pressure

Stazioni seguenti

WeatherPro
AMSI
MeteoEarth